User: anonymous   Login
Location: �couen
(49.0206°N, 2.3831°E)
Time: 15:08:10
(UTC+00:00)
Language:

SL-16 R/B - Orbit

View from above orbital plane
View from above orbital plane
View from above satellite
View from above satellite

Ground track
Ground track

The orbit data is extracted from the following two-line orbital elements,

1 31793U 07029B   22020.52043941 -.00000250  00000-0 -10549-3 0  9996
2 31793  70.9758 103.6352 0002158 264.1023 186.6766 14.14457419752032
Epoch (UTC): 20 January 2022 12:29:25
Eccentricity: 0.0002158
inclination: 70.9758°
perigee height: 842 km
apogee height: 846 km
right ascension of ascending node: 103.6352°
argument of perigee: 264.1023°
revolutions per day: 14.14457419
mean anomaly at epoch: 186.6766°
orbit number at epoch: 75203

The dashed part of the orbit path shows where the satellite is in the earth's shadow,  

DLR